Home > Weather > Weiz > Past weeks

Flag for Austria Past Weather in Weiz, Styria, Austria — Yesterday and Last 2 Weeks

Now
72 °F

Passing clouds.


Feels Like: 74 °F
Forecast: 62 / 79 °F
Wind: N/A

Location: Graz-Thalerhof-Flughafen

Current Time: Jul 24, 2016 at 1:19:46 AM

Latest Report: Jul 24, 2016 at 12:00 AM


Visibility: 22 mi

Pressure: 29.98 "Hg

Humidity: 72%

Dew Point: 62 °F

Location of WeizLocation

Past Weather in Weiz — Graph

°F

Weiz Temperature Yesterday

Maximum temperature yesterday: 82 °F (at 5:00 PM)
Minimum temperature yesterday: 62 °F (at 5:00 AM)
Average temperature yesterday: 73 °F

High & Low Weather Summary for the Past Weeks

 TemperatureHumidityPressure
High87 °F (Jul 11, 3:00 PM)99% (Jul 9, 3:00 AM)30.17 "Hg (Jul 9, 3:00 AM)
Low50 °F (Jul 15, 6:00 AM)37% (Jul 14, 4:00 PM)29.75 "Hg (Jul 14, 2:00 AM)
Average70 °F71%29.99 "Hg
* Reported Jul 9 12:00 AM — Jul 24 12:00 AM, Weiz, Weather by CustomWeather, © 2016

Note: Actual official high and low records may vary slightly from our data, if they occured in-between our weather recording intervals... More about our weather records

Advertising

Weiz Weather History for the Previous 24 Hours

Scroll right to see more
 ConditionsComfort  
Time TempWeatherWind HumidityBarometerVisibility
12:00 AM
Sun, Jul 24
72 °FPassing clouds.N/A72%29.98 "Hg22 mi
9:00 PM
Sat, Jul 23
78 °FPassing clouds.N/A73%29.96 "Hg22 mi
8:00 PM79 °FRain showers. Scattered clouds.N/A67%29.94 "Hg10 mi
7:00 PM81 °FPassing clouds.N/A62%29.94 "Hg2 mi
6:00 PM82 °FPassing clouds.N/A57%29.94 "Hg22 mi
5:00 PM82 °FPassing clouds.3 mph57%29.95 "Hg22 mi
4:00 PM82 °FPassing clouds.N/A55%29.96 "Hg19 mi
3:00 PM82 °FPassing clouds.N/A58%29.97 "Hg16 mi
2:00 PM81 °FPassing clouds.N/A60%29.98 "Hg9 mi
1:00 PM79 °FPassing clouds.N/A65%29.98 "Hg19 mi
12:00 PM77 °FPassing clouds.N/A74%29.99 "Hg12 mi
11:00 AM75 °FPassing clouds.N/A70%30.00 "Hg25 mi
10:00 AM73 °FPassing clouds.N/A75%29.99 "Hg19 mi
9:00 AM72 °FPassing clouds.N/A80%29.99 "Hg16 mi
8:00 AM68 °FPassing clouds.N/A87%30.00 "Hg12 mi
7:00 AM64 °FSunny.N/A95%30.00 "Hg8 mi
6:00 AM62 °FSunny.N/A98%29.99 "Hg1 mi
5:00 AM62 °FCool.N/A98%29.99 "Hg6 mi
4:00 AM63 °FMild.N/A96%29.99 "Hg4 mi
3:00 AM64 °FMild.N/A96%29.99 "Hg6 mi
2:00 AM65 °FPassing clouds.N/A95%29.99 "Hg13 mi
1:00 AM66 °FPassing clouds.N/A90%29.99 "Hg19 mi
Weather by CustomWeather, © 2016

See weather overviewHow to use our weather pages